EW1867 Weather Reports


time (UTC)temp
C
wind
direction
speed
KPH
gust
KPH
rain 1hr
cm
rain 24hr
cm
rain mn
cm
humidity
%
barometer
mb
20260508151737 15 132 1.6 8.0 0.00 0.00 0.00 82 1016.7
20260508150836 15 113 1.6 6.4 0.00 0.00 0.00 82 1016.7
20260508145937 15 118 1.6 4.8 0.00 0.00 0.00 83 1016.7
20260508145036 14 124 1.6 8.0 0.00 0.00 0.00 84 1016.7
20260508144136 13 121 1.6 6.4 0.00 0.00 0.00 86 1016.6
20260508142337 12 101 1.6 8.0 0.00 0.00 0.00 89 1016.4
20260508141436 12 126 0.0 6.4 0.00 0.00 0.00 90 1016.4
20260508140536 12 117 1.6 4.8 0.00 0.00 0.00 90 1016.4
20260508135636 12 110 1.6 6.4 0.00 0.00 0.00 90 1016.2
20260508134736 12 107 1.6 8.0 0.00 0.00 0.00 90 1016.0
20260508133837 12 107 1.6 9.7 0.00 0.00 0.00 91 1015.9
20260508132937 12 105 1.6 6.4 0.00 0.00 0.00 91 1015.8
20260508132037 12 105 1.6 6.4 0.00 0.00 0.00 91 1015.9
20260508131136 12 114 1.6 3.2 0.00 0.00 0.00 91 1015.9
20260508130237 12 105 1.6 8.0 0.00 0.00 0.00 91 1015.9
20260508125337 12 104 0.0 4.8 0.00 0.00 0.00 91 1015.8
20260508124438 12 109 1.6 4.8 0.00 0.00 0.00 91 1015.7
20260508122636 12 0 0.0 4.8 0.00 0.00 0.00 91 1015.5
20260508115937 12 111 1.6 4.8 0.00 0.00 0.00 91 1015.5
20260508115037 12 115 1.6 4.8 0.00 0.00 0.00 91 1015.3
20260508114136 12 116 1.6 6.4 0.00 0.00 0.00 91 1015.4
20260508113237 12 114 1.6 6.4 0.00 0.00 0.00 91 1015.2
20260508112336 12 0 0.0 4.8 0.00 0.00 0.00 91 1015.2
20260508111436 12 0 0.0 4.8 0.00 0.00 0.00 91 1015.3
20260508110536 12 107 0.0 4.8 0.00 0.00 0.00 91 1015.3
20260508105637 13 108 1.6 3.2 0.00 0.00 0.00 90 1015.3
20260508104736 13 102 1.6 9.7 0.00 0.00 0.00 90 1015.3
20260508103837 13 96 1.6 8.0 0.00 0.00 0.00 90 1015.4
20260508102937 13 0 0.0 6.4 0.00 0.00 0.00 90 1015.4
20260508102036 13 0 0.0 3.2 0.00 0.00 0.00 90 1015.4
20260508101137 13 109 0.0 3.2 0.00 0.00 0.00 90 1015.3
20260508100236 13 96 1.6 11.3 0.00 0.00 0.00 90 1015.3
20260508095337 13 101 1.6 11.3 0.00 0.00 0.00 89 1015.3
20260508094437 13 105 1.6 4.8 0.00 0.00 0.00 89 1015.3
20260508093537 13 104 1.6 6.4 0.00 0.00 0.00 89 1015.3
20260508092637 13 100 1.6 6.4 0.00 0.00 0.00 89 1015.3
20260508091737 13 109 1.6 6.4 0.00 0.00 0.00 89 1015.3
20260508090837 13 96 1.6 8.0 0.00 0.00 0.00 89 1015.3
20260508085937 14 104 1.6 4.8 0.00 0.00 0.00 88 1015.1
20260508085037 14 108 0.0 4.8 0.00 0.00 0.00 88 1015.1
20260508084136 14 0 0.0 4.8 0.00 0.00 0.00 87 1015.1
20260508083236 15 0 0.0 3.2 0.00 0.00 0.00 87 1015.2
20260508082336 15 127 0.0 3.2 0.00 0.00 0.00 86 1015.3
20260508075637 15 105 0.0 3.2 0.00 0.00 0.00 85 1015.1
20260508074736 15 123 1.6 3.2 0.00 0.00 0.00 85 1015.2
20260508073837 16 117 0.0 6.4 0.00 0.00 0.00 84 1015.0
20260508071136 16 108 1.6 6.4 0.00 0.00 0.00 83 1014.8
20260508065336 16 0 0.0 3.2 0.00 0.00 0.00 83 1014.9
20260508064437 17 124 1.6 6.4 0.00 0.00 0.00 82 1014.8
20260508063537 17 124 1.6 4.8 0.00 0.00 0.00 82 1014.9
20260508062637 17 110 1.6 8.0 0.00 0.00 0.00 81 1014.7
20260508061736 17 111 0.0 8.0 0.00 0.00 0.00 81 1014.6
20260508060837 17 111 1.6 3.2 0.00 0.00 0.00 80 1014.6
20260508055937 17 95 0.0 6.4 0.00 0.00 0.00 80 1014.5
20260508055036 18 0 0.0 0.0 0.00 0.00 0.00 80 1014.6
20260508054136 18 0 0.0 0.0 0.00 0.00 0.00 80 1014.6
20260508052336 18 0 0.0 0.0 0.00 0.00 0.00 78 1014.6
20260508051437 18 124 0.0 3.2 0.00 0.00 0.00 78 1014.6
20260508050537 19 120 1.6 8.0 0.00 0.00 0.00 77 1014.6
20260508045636 19 127 0.0 3.2 0.00 0.00 0.00 76 1014.6
20260508044737 20 121 0.0 3.2 0.00 0.00 0.00 75 1014.5
20260508043837 20 128 1.6 3.2 0.00 0.00 0.00 75 1014.4
20260508042937 21 125 0.0 4.8 0.00 0.00 0.00 73 1014.3
20260508042037 21 0 0.0 4.8 0.00 0.00 0.00 73 1014.1
20260508041137 22 0 0.0 3.2 0.00 0.00 0.00 73 1014.2
20260508040237 22 219 1.6 3.2 0.00 0.00 0.00 71 1014.0
20260508034436 23 207 0.0 6.4 0.00 0.00 0.00 69 1013.8
20260508033536 23 200 1.6 3.2 0.00 0.00 0.00 68 1013.8
20260508032636 24 220 1.6 4.8 0.00 0.00 0.00 68 1013.8
20260508031737 24 201 1.6 4.8 0.00 0.00 0.00 68 1013.6
20260508030837 25 218 1.6 6.4 0.00 0.00 0.00 67 1013.4
20260508025937 26 209 1.6 9.7 0.00 0.00 0.00 65 1013.4
20260508024137 27 0 0.0 1.6 0.00 0.00 0.00 55 1013.2
20260508023236 28 0 0.0 6.4 0.00 0.00 0.00 54 1013.2
20260508022337 28 0 0.0 1.6 0.00 0.00 0.00 54 1013.1
20260508021437 28 216 0.0 3.2 0.00 0.00 0.00 54 1013.1
20260508020537 27 224 1.6 3.2 0.00 0.00 0.00 55 1013.2
20260508015637 27 218 1.6 4.8 0.00 0.00 0.00 55 1013.1
20260508013837 28 234 1.6 6.4 0.00 0.00 0.00 56 1013.2
20260508012938 28 244 1.6 6.4 0.00 0.00 0.00 55 1013.2
20260508012037 28 227 0.0 4.8 0.00 0.00 0.00 55 1013.3
20260508005337 28 243 1.6 6.4 0.00 0.00 0.00 56 1013.4
20260508003537 28 293 1.6 4.8 0.00 0.00 0.00 54 1013.6
20260508001737 28 297 3.2 4.8 0.00 0.00 0.00 54 1013.6
20260508000837 29 265 1.6 4.8 0.00 0.00 0.00 53 1013.7
20260507235937 29 113 1.6 3.2 0.00 0.00 0.00 52 1013.6
20260507235037 29 216 3.2 4.8 0.00 0.00 0.00 51 1013.7
20260507234136 29 216 3.2 6.4 0.00 0.00 0.00 53 1013.7
20260507232337 30 244 3.2 6.4 0.00 0.00 0.00 53 1013.8
20260507231438 30 229 3.2 8.0 0.00 0.00 0.00 53 1014.0
20260507230537 29 227 1.6 6.4 0.00 0.00 0.00 53 1014.2
20260507225637 29 270 1.6 4.8 0.00 0.00 0.00 54 1014.3
20260507223837 30 230 3.2 6.4 0.00 0.00 0.00 53 1014.6
20260507222937 29 163 1.6 6.4 0.00 0.00 0.00 54 1014.8
20260507222037 28 296 1.6 6.4 0.00 0.00 0.00 54 1015.0
20260507221136 28 230 1.6 6.4 0.00 0.00 0.00 53 1015.1
20260507215337 28 211 3.2 8.0 0.00 0.00 0.00 53 1015.4
20260507214437 28 215 1.6 6.4 0.00 0.00 0.00 54 1015.4
20260507213537 27 283 1.6 4.8 0.00 0.00 0.00 57 1015.6
20260507212637 28 274 1.6 3.2 0.00 0.00 0.00 54 1015.7
20260507211737 27 252 1.6 4.8 0.00 0.00 0.00 55 1016.0
20260507210837 27 249 3.2 8.0 0.00 0.00 0.00 56 1016.1
20260507205937 27 294 1.6 4.8 0.00 0.00 0.00 57 1016.1
20260507205037 27 223 1.6 8.0 0.00 0.00 0.00 56 1016.2
20260507204137 27 244 1.6 6.4 0.00 0.00 0.00 57 1016.2
20260507203237 26 317 1.6 4.8 0.00 0.00 0.00 58 1016.4
20260507202337 27 243 3.2 6.4 0.00 0.00 0.00 56 1016.5
20260507201437 27 208 1.6 6.4 0.00 0.00 0.00 56 1016.5
20260507200537 26 234 1.6 6.4 0.00 0.00 0.00 57 1016.6
20260507195637 26 232 1.6 4.8 0.00 0.00 0.00 58 1016.7
20260507194737 26 223 1.6 4.8 0.00 0.00 0.00 57 1016.8
20260507193837 26 225 1.6 4.8 0.00 0.00 0.00 57 1017.0
20260507192937 25 257 3.2 6.4 0.00 0.00 0.00 59 1017.1
20260507192037 25 202 3.2 8.0 0.00 0.00 0.00 60 1017.2
20260507191137 25 177 1.6 6.4 0.00 0.00 0.00 60 1017.3
20260507190237 25 231 1.6 4.8 0.00 0.00 0.00 61 1017.5
20260507185337 25 218 1.6 6.4 0.00 0.00 0.00 60 1017.5
20260507184437 25 209 3.2 4.8 0.00 0.00 0.00 62 1017.4
20260507183537 24 224 1.6 6.4 0.00 0.00 0.00 61 1017.6
20260507182637 24 217 1.6 6.4 0.00 0.00 0.00 63 1017.7
20260507181737 24 219 1.6 6.4 0.00 0.00 0.00 63 1017.7
20260507180837 23 235 1.6 4.8 0.00 0.00 0.00 64 1017.5
20260507175937 23 236 1.6 4.8 0.00 0.00 0.00 64 1017.7
20260507175037 22 105 1.6 6.4 0.00 0.00 0.00 66 1017.7
20260507174137 22 224 1.6 4.8 0.00 0.00 0.00 67 1017.6
20260507173237 22 223 1.6 8.0 0.00 0.00 0.00 67 1017.7
20260507171437 22 207 1.6 4.8 0.00 0.00 0.00 67 1017.7
20260507165637 21 207 1.6 4.8 0.00 0.00 0.00 70 1018.0
20260507164737 21 212 1.6 4.8 0.00 0.00 0.00 70 1017.9
20260507162937 20 121 0.0 4.8 0.00 0.00 0.00 72 1017.9
20260507162037 20 112 1.6 3.2 0.00 0.00 0.00 73 1018.0
20260507161137 19 111 1.6 4.8 0.00 0.00 0.00 74 1017.9
20260507160237 18 218 1.6 3.2 0.00 0.00 0.00 76 1018.0
20260507155337 18 165 1.6 4.8 0.00 0.00 0.00 78 1018.0
20260507154437 17 130 1.6 4.8 0.00 0.00 0.00 78 1018.0
20260507153537 17 227 1.6 3.2 0.00 0.00 0.00 80 1017.9
20260507152637 17 114 0.0 6.4 0.00 0.00 0.00 80 1017.9